Change the Weather History Date:

Wednesday, November 14, 2012

  Actual Average (KEGE) Record (KEGE)
Temperature  
Mean Temperature 26 °F -  
Max Temperature 44 °F 47 °F 64 °F (1963)
Min Temperature 8 °F 19 °F -1 °F (1959)
Degree Days  
Heating Degree Days 39    
Moisture  
Dew Point 12 °F    
Average Humidity 63    
Maximum Humidity 86    
Minimum Humidity 25    
Precipitation  
Precipitation 0.00 in - - ()
Sea Level Pressure  
Sea Level Pressure 30.31 in    
Wind  
Wind Speed 1 mph (WSW)    
Max Wind Speed 9 mph    
Max Gust Speed -    
Averages and records for this station are not official NWS values.
T = Trace of Precipitation, MM = Missing Value Source: NWS Daily Summary

Daily Weather History Graph

Daily Weather History Graph

Search for Another Location

Airport or City:

Trip Planner

Search our weather history database for the weather conditions in past years. The results will help you decide how hot, cold, wet, or windy it might be!

Date:

Astronomy

Nov. 14, 2012 Rise Set
Actual Time 6:50 AM MST 4:49 PM MST
Civil Twilight 6:21 AM MST 5:18 PM MST
Nautical Twilight 5:48 AM MST 5:51 PM MST
Astronomical Twilight 5:16 AM MST 6:23 PM MST
Moon 7:42 AM MST (11/14) 5:40 PM MST (11/14)
Length of Visible Light 10h 57m
Length of Day
9h 59m
New Moon, 1% of the Moon is Illuminated
Nov 14
New Moon
Nov 20
First Quarter
Nov 28
Full
Dec 6
Last Quarter
Dec 13
New

Hourly Weather History & Observations

Time (MST) Temp. Windchill Dew Point Humidity Pressure Visibility Wind Dir Wind Speed Gust Speed Precip Events Conditions
12:15 AM 12.2 °F - 8.6 °F 85% 30.37 in - Calm Calm - N/A   Clear
12:35 AM 12.2 °F - 8.6 °F 85% 30.36 in - Calm Calm - N/A   Unknown
12:55 AM 10.4 °F - 5.0 °F 79% 30.36 in - Calm Calm - N/A   Clear
1:14 AM 10.4 °F - 5.0 °F 79% 30.36 in - Calm Calm - N/A   Unknown
1:35 AM 12.2 °F - 6.8 °F 79% 30.37 in - Calm Calm - N/A   Clear
1:55 AM 10.4 °F - 5.0 °F 79% 30.37 in - Calm Calm - N/A   Unknown
2:15 AM 10.4 °F - 5.0 °F 79% 30.37 in - Calm Calm - N/A   Unknown
2:35 AM 10.4 °F - 5.0 °F 79% 30.37 in - Calm Calm - N/A   Unknown
2:54 AM 10.4 °F - 5.0 °F 79% 30.37 in - Calm Calm - N/A   Unknown
3:15 AM 8.6 °F - 3.2 °F 79% 30.37 in - Calm Calm - N/A   Clear
3:35 AM 10.4 °F - 5.0 °F 79% 30.37 in - Calm Calm - N/A   Unknown
3:55 AM 8.6 °F - 3.2 °F 79% 30.37 in - Calm Calm - N/A   Clear
4:15 AM 10.4 °F - 5.0 °F 79% 30.37 in - Calm Calm - N/A   Unknown
4:35 AM 10.4 °F - 5.0 °F 79% 30.37 in - Calm Calm - N/A   Unknown
4:55 AM 8.6 °F - 1.4 °F 73% 30.38 in - Calm Calm - N/A   Clear
5:15 AM 8.6 °F - 3.2 °F 79% 30.38 in - Calm Calm - N/A   Clear
5:35 AM 8.6 °F - 3.2 °F 79% 30.38 in - Calm Calm - N/A   Clear
5:55 AM 8.6 °F - 3.2 °F 79% 30.38 in - Calm Calm - N/A   Unknown
6:15 AM 8.6 °F - 3.2 °F 79% 30.38 in - Calm Calm - N/A   Unknown
6:35 AM 8.6 °F - 3.2 °F 79% 30.38 in - Calm Calm - N/A   Scattered Clouds
6:55 AM 8.6 °F - 3.2 °F 79% 30.39 in - Calm Calm - N/A   Scattered Clouds
7:15 AM 10.4 °F - 5.0 °F 79% 30.40 in - Calm Calm - N/A   Unknown
7:34 AM 10.4 °F - 5.0 °F 79% 30.40 in - Calm Calm - N/A   Unknown
7:55 AM 12.2 °F - 8.6 °F 85% 30.41 in - Calm Calm - N/A   Clear
8:15 AM 14.0 °F - 10.4 °F 86% 30.40 in - Calm Calm - N/A   Unknown
8:35 AM 14.0 °F - 10.4 °F 86% 30.41 in - Calm Calm - N/A   Unknown
8:55 AM 15.8 °F - 12.2 °F 86% 30.41 in - Calm Calm - N/A   Unknown
9:14 AM 17.6 °F - 12.2 °F 79% 30.39 in - Calm Calm - N/A   Unknown
9:35 AM 21.2 °F - 14.0 °F 74% 30.38 in - Calm Calm - N/A   Scattered Clouds
9:54 AM 21.2 °F - 14.0 °F 74% 30.38 in - Calm Calm - N/A   Scattered Clouds
10:15 AM 23.0 °F - 14.0 °F 68% 30.36 in - Calm Calm - N/A   Clear
10:35 AM 23.0 °F - 14.0 °F 68% 30.35 in - Calm Calm - N/A   Clear
10:55 AM 26.6 °F - 14.0 °F 59% 30.34 in - Calm Calm - N/A   Clear
11:15 AM 28.4 °F - 15.8 °F 59% 30.32 in - Calm Calm - N/A   Clear
11:35 AM 30.2 °F - 17.6 °F 60% 30.31 in - Calm Calm - N/A   Clear
11:55 AM 30.2 °F - 17.6 °F 60% 30.30 in - Calm Calm - N/A   Scattered Clouds
12:15 PM 32.0 °F - 17.6 °F 55% 30.28 in - Calm Calm - N/A   Scattered Clouds
12:35 PM 33.8 °F - 19.4 °F 56% 30.27 in - Calm Calm - N/A   Clear
12:55 PM 35.6 °F 32.8 °F 19.4 °F 52% 30.26 in - ESE 3.5 mph - N/A   Unknown
1:14 PM 35.6 °F - 19.4 °F 52% 30.25 in - Calm Calm - N/A   Clear
1:34 PM 41.0 °F 35.8 °F 17.6 °F 39% 30.24 in - West 8.1 mph - N/A   Clear
1:54 PM 42.8 °F 38.6 °F 15.8 °F 34% 30.24 in - West 6.9 mph - N/A   Clear
2:15 PM 42.8 °F 41.1 °F 14.0 °F 31% 30.23 in - WSW 3.5 mph - N/A   Clear
2:35 PM 42.8 °F - 12.2 °F 29% 30.22 in - Calm Calm - N/A   Clear
2:54 PM 44.6 °F - 10.4 °F 25% 30.22 in - Calm Calm - N/A   Clear
3:15 PM 44.6 °F 43.1 °F 10.4 °F 25% 30.22 in - WNW 3.5 mph - N/A   Clear
3:35 PM 42.8 °F - 12.2 °F 29% 30.22 in - Calm Calm - N/A   Clear
3:55 PM 41.0 °F 37.1 °F 12.2 °F 31% 30.23 in - West 5.8 mph - N/A   Scattered Clouds
4:15 PM 41.0 °F 38.0 °F 10.4 °F 29% 30.22 in - SW 4.6 mph - N/A   Scattered Clouds
4:35 PM 41.0 °F 39.0 °F 10.4 °F 29% 30.22 in - West 3.5 mph - N/A   Unknown
4:55 PM 39.2 °F 34.2 °F 12.2 °F 33% 30.22 in - SW 6.9 mph - N/A   Clear
5:15 PM 37.4 °F 32.1 °F 10.4 °F 33% 30.22 in - WSW 6.9 mph - N/A   Clear
5:35 PM 37.4 °F 30.8 °F 12.2 °F 36% 30.22 in - West 9.2 mph - N/A   Scattered Clouds
5:55 PM 33.8 °F 27.7 °F 14.0 °F 44% 30.22 in - WSW 6.9 mph - N/A   Clear
6:15 PM 35.6 °F 30.7 °F 14.0 °F 41% 30.24 in - SW 5.8 mph - N/A   Clear
6:35 PM 35.6 °F 28.6 °F 14.0 °F 41% 30.23 in - West 9.2 mph - N/A   Clear
6:55 PM 33.8 °F 28.6 °F 15.8 °F 48% 30.24 in - WSW 5.8 mph - N/A   Scattered Clouds
7:14 PM 33.8 °F 29.6 °F 17.6 °F 52% 30.24 in - WSW 4.6 mph - N/A   Scattered Clouds
7:34 PM 33.8 °F 29.6 °F 17.6 °F 52% 30.24 in - South 4.6 mph - N/A   Scattered Clouds
7:55 PM 32.0 °F - 17.6 °F 55% 30.25 in - Calm Calm - N/A   Scattered Clouds
8:15 PM 30.2 °F - 17.6 °F 60% 30.25 in - Calm Calm - N/A   Scattered Clouds
8:35 PM 30.2 °F - 17.6 °F 60% 30.25 in - Calm Calm - N/A   Mostly Cloudy
8:54 PM 30.2 °F - 17.6 °F 60% 30.26 in - Calm Calm - N/A   Mostly Cloudy
9:14 PM 28.4 °F - 19.4 °F 69% 30.27 in - Calm Calm - N/A   Scattered Clouds
9:35 PM 28.4 °F - 19.4 °F 69% 30.27 in - Calm Calm - N/A   Scattered Clouds
9:55 PM 28.4 °F - 17.6 °F 64% 30.27 in - Calm Calm - N/A   Mostly Cloudy
10:15 PM 28.4 °F - 19.4 °F 69% 30.28 in - Calm Calm - N/A   Mostly Cloudy
10:35 PM 28.4 °F - 21.2 °F 74% 30.28 in - Calm Calm - N/A   Mostly Cloudy
10:54 PM 28.4 °F - 19.4 °F 69% 30.28 in - Calm Calm - N/A   Overcast
11:15 PM 28.4 °F - 19.4 °F 69% 30.29 in - Calm Calm - N/A   Mostly Cloudy
11:35 PM 26.6 °F - 19.4 °F 74% 30.30 in - Calm Calm - N/A   Clear
11:55 PM 24.8 °F - 19.4 °F 80% 30.29 in - Calm Calm - N/A   Scattered Clouds